QPF
0.00 0.00 0.00 0.00 0.00 0.00 0.00 0.00 0.00 0.01 0.01 0.01 0.00 0.00 0.00 0.01 0.00 0.00 0.00 0.00 0.00 0.00 0.00 0.01 0.03 0.05 0.08 0.08 0.06 0.04 0.05 0.05 0.06 0.08 0.10 0.13 0.15 0.15
0.00 0.00 0.00 0.00 0.00 0.00 0.00 0.00 0.00 0.01 0.01 0.00 0.00 0.00 0.00 0.00 0.00 0.00 0.00 0.00 0.00 0.00 0.00 0.00 0.01 0.01 0.03 0.05 0.05 0.04 0.04 0.03 0.04 0.05 0.07 0.09 0.10 0.11
0.00 0.00 0.00 0.01 0.01 0.00 0.00 0.00 0.00 0.00 0.01 0.00 0.00 0.00 0.00 0.00 0.00 0.00 0.00 0.00 0.00 0.00 0.00 0.00 0.00 0.00 0.00 0.01 0.02 0.03 0.04 0.04 0.04 0.04 0.05 0.06 0.07 0.08
0.00 0.00 0.00 0.01 0.01 0.01 0.01 0.01 0.01 0.01 0.01 0.00 0.00 0.00 0.00 0.00 0.01 0.01 0.00 0.00 0.00 0.00 0.00 0.00 0.00 0.00 0.00 0.00 0.00 0.01 0.01 0.02 0.03 0.03 0.04 0.04 0.05 0.05
0.00 0.00 0.00 0.00 0.01 0.01 0.01 0.01 0.01 0.00 0.01 0.01 0.01 0.01 0.00 0.00 0.00 0.00 0.00 0.01 0.00 0.00 0.00 0.00 0.00 0.00 0.00 0.00 0.00 0.00 0.01 0.01 0.01 0.02 0.02 0.03 0.03 0.04
0.00 0.00 0.00 0.01 0.01 0.01 0.01 0.01 0.01 0.01 0.01 0.01 0.01 0.01 0.01 0.01 0.01 0.01 0.01 0.01 0.01 0.00 0.00 0.00 0.00 0.00 0.00 0.00 0.00 0.00 0.02 0.03 0.03 0.02 0.02 0.02 0.03 0.03
0.00 0.00 0.00 0.00 0.00 0.00 0.00 0.00 0.00 0.01 0.01 0.01 0.01 0.01 0.01 0.02 0.02 0.02 0.01 0.01 0.01 0.01 0.01 0.00 0.00 0.00 0.00 0.00 0.00 0.00 0.00 0.02 0.04 0.05 0.05 0.05 0.05 0.05
0.00 0.00 0.00 0.00 0.00 0.00 0.00 0.00 0.00 0.00 0.00 0.00 0.01 0.01 0.01 0.02 0.02 0.01 0.01 0.01 0.01 0.01 0.01 0.01 0.01 0.01 0.01 0.00 0.01 0.01 0.00 0.00 0.00 0.01 0.02 0.04 0.06 0.06
0.00 0.00 0.00 0.00 0.00 0.00 0.00 0.00 0.00 0.00 0.00 0.00 0.00 0.00 0.00 0.01 0.02 0.01 0.02 0.02 0.01 0.01 0.02 0.01 0.01 0.01 0.00 0.00 0.00 0.00 0.00 0.00 0.00 0.00 0.00 0.00 0.01 0.01
0.00 0.00 0.00 0.00 0.00 0.00 0.00 0.00 0.01 0.00 0.00 0.00 0.00 0.00 0.01 0.01 0.02 0.01 0.01 0.01 0.01 0.01 0.02 0.01 0.00 0.00 0.00 0.00 0.00 0.00 0.00 0.00 0.00 0.00 0.00 0.00 0.00 0.01
0.00 0.00 0.00 0.00 0.00 0.00 0.00 0.00 0.00 0.00 0.00 0.00 0.00 0.00 0.00 0.00 0.00 0.00 0.00 0.01 0.01 0.01 0.02 0.02 0.01 0.01 0.01 0.00 0.00 0.00 0.00 0.00 0.00 0.00 0.00 0.00 0.00 0.00
0.00 0.00 0.00 0.00 0.00 0.00 0.00 0.01 0.01 0.01 0.01 0.01 0.01 0.01 0.00 0.00 0.00 0.00 0.01 0.01 0.01 0.01 0.01 0.03 0.02 0.03 0.02 0.00 0.00 0.01 0.01 0.00 0.00 0.00 0.00 0.00 0.00 0.00
0.00 0.00 0.00 0.00 0.00 0.00 0.00 0.00 0.01 0.01 0.01 0.01 0.01 0.01 0.02 0.02 0.02 0.01 0.02 0.02 0.02 0.01 0.01 0.03 0.03 0.03 0.04 0.02 0.01 0.01 0.02 0.02 0.01 0.00 0.00 0.00 0.00 0.00
0.00 0.00 0.00 0.00 0.00 0.00 0.00 0.00 0.00 0.00 0.00 0.00 0.00 0.01 0.01 0.01 0.01 0.02 0.03 0.03 0.03 0.02 0.02 0.03 0.03 0.03 0.03 0.03 0.02 0.01 0.01 0.02 0.02 0.02 0.02 0.01 0.00 0.00
0.00 0.00 0.00 0.00 0.00 0.00 0.00 0.00 0.00 0.00 0.00 0.00 0.00 0.01 0.01 0.01 0.02 0.03 0.03 0.04 0.04 0.02 0.01 0.04 0.04 0.03 0.04 0.03 0.01 0.01 0.02 0.03 0.03 0.03 0.03 0.04 0.03 0.02
0.01 0.00 0.00 0.00 0.00 0.00 0.00 0.00 0.01 0.01 0.01 0.01 0.01 0.02 0.02 0.02 0.03 0.03 0.04 0.04 0.05 0.02 0.02 0.04 0.05 0.06 0.04 0.03 0.03 0.02 0.02 0.02 0.03 0.04 0.05 0.04 0.04 0.04
0.01 0.01 0.01 0.01 0.01 0.01 0.02 0.02 0.03 0.04 0.04 0.04 0.04 0.04 0.04 0.04 0.04 0.04 0.06 0.07 0.06 0.04 0.03 0.04 0.07 0.07 0.06 0.05 0.04 0.02 0.02 0.02 0.02 0.04 0.06 0.05 0.04 0.04
0.01 0.01 0.01 0.02 0.02 0.02 0.03 0.03 0.04 0.05 0.06 0.07 0.08 0.07 0.07 0.07 0.07 0.07 0.09 0.10 0.09 0.07 0.06 0.06 0.08 0.09 0.08 0.06 0.03 0.02 0.02 0.02 0.02 0.05 0.06 0.05 0.03 0.04
0.01 0.01 0.01 0.01 0.01 0.01 0.02 0.03 0.03 0.04 0.06 0.07 0.08 0.08 0.09 0.09 0.09 0.10 0.10 0.10 0.09 0.08 0.08 0.09 0.12 0.13 0.11 0.06 0.03 0.03 0.03 0.03 0.04 0.05 0.06 0.06 0.04 0.04
0.00 0.00 0.01 0.01 0.01 0.02 0.03 0.03 0.04 0.05 0.06 0.08 0.08 0.09 0.11 0.11 0.11 0.11 0.11 0.11 0.10 0.09 0.09 0.09 0.10 0.10 0.10 0.07 0.05 0.04 0.03 0.03 0.05 0.05 0.05 0.06 0.06 0.05
0.01 0.01 0.02 0.02 0.02 0.03 0.04 0.05 0.07 0.07 0.07 0.09 0.10 0.11 0.12 0.12 0.12 0.11 0.12 0.12 0.10 0.09 0.08 0.06 0.07 0.07 0.07 0.08 0.05 0.02 0.03 0.03 0.03 0.06 0.07 0.08 0.07 0.07
0.02 0.02 0.02 0.02 0.03 0.03 0.04 0.06 0.07 0.07 0.09 0.10 0.10 0.11 0.12 0.14 0.13 0.12 0.12 0.12 0.11 0.10 0.08 0.07 0.08 0.11 0.11 0.10 0.06 0.04 0.05 0.06 0.06 0.03 0.02 0.03 0.05 0.05
0.02 0.02 0.02 0.03 0.04 0.05 0.06 0.07 0.08 0.10 0.12 0.11 0.10 0.10 0.11 0.12 0.12 0.11 0.10 0.11 0.10 0.10 0.09 0.09 0.10 0.13 0.12 0.11 0.09 0.07 0.05 0.07 0.09 0.08 0.04 0.03 0.01 0.01
MSLP
1018.14 1018.31 1018.49 1018.66 1018.80 1018.89 1018.92 1018.88 1018.78 1018.64 1018.46 1018.26 1018.07 1017.89 1017.74 1017.63 1017.55 1017.50 1017.48 1017.48 1017.50 1017.52 1017.54 1017.54 1017.53 1017.50 1017.46 1017.40 1017.35 1017.31 1017.29 1017.30 1017.35 1017.43 1017.54 1017.67 1017.83 1018.01
1017.91 1018.05 1018.20 1018.34 1018.47 1018.56 1018.61 1018.61 1018.55 1018.46 1018.32 1018.16 1017.98 1017.80 1017.62 1017.44 1017.28 1017.15 1017.04 1016.96 1016.91 1016.89 1016.88 1016.89 1016.90 1016.90 1016.90 1016.89 1016.87 1016.86 1016.85 1016.85 1016.88 1016.93 1016.99 1017.09 1017.20 1017.33
1017.66 1017.77 1017.88 1018.00 1018.10 1018.19 1018.25 1018.28 1018.27 1018.22 1018.13 1018.01 1017.86 1017.68 1017.47 1017.25 1017.03 1016.81 1016.62 1016.46 1016.34 1016.26 1016.22 1016.22 1016.24 1016.28 1016.31 1016.35 1016.37 1016.38 1016.39 1016.41 1016.43 1016.46 1016.50 1016.57 1016.65 1016.75
1017.38 1017.46 1017.54 1017.63 1017.72 1017.80 1017.87 1017.92 1017.94 1017.94 1017.91 1017.83 1017.71 1017.55 1017.34 1017.10 1016.83 1016.55 1016.29 1016.05 1015.86 1015.73 1015.65 1015.62 1015.63 1015.67 1015.73 1015.78 1015.82 1015.86 1015.89 1015.91 1015.94 1015.97 1016.02 1016.08 1016.15 1016.24
1017.06 1017.12 1017.18 1017.25 1017.33 1017.40 1017.47 1017.53 1017.59 1017.63 1017.64 1017.61 1017.54 1017.41 1017.22 1016.98 1016.69 1016.38 1016.07 1015.78 1015.53 1015.34 1015.20 1015.13 1015.10 1015.11 1015.15 1015.19 1015.23 1015.26 1015.29 1015.33 1015.36 1015.42 1015.48 1015.57 1015.66 1015.77
1016.67 1016.72 1016.78 1016.83 1016.90 1016.96 1017.03 1017.11 1017.18 1017.25 1017.30 1017.33 1017.30 1017.22 1017.07 1016.85 1016.58 1016.27 1015.95 1015.62 1015.32 1015.07 1014.88 1014.74 1014.65 1014.60 1014.58 1014.58 1014.58 1014.59 1014.61 1014.64 1014.69 1014.76 1014.86 1014.99 1015.13 1015.29
1016.19 1016.25 1016.31 1016.36 1016.42 1016.47 1016.54 1016.61 1016.70 1016.78 1016.86 1016.92 1016.95 1016.92 1016.82 1016.66 1016.43 1016.15 1015.84 1015.51 1015.19 1014.90 1014.64 1014.43 1014.26 1014.13 1014.03 1013.95 1013.88 1013.84 1013.83 1013.84 1013.90 1014.00 1014.14 1014.31 1014.52 1014.74
1015.62 1015.70 1015.76 1015.82 1015.88 1015.92 1015.98 1016.04 1016.11 1016.20 1016.29 1016.37 1016.43 1016.45 1016.41 1016.31 1016.15 1015.92 1015.65 1015.34 1015.02 1014.71 1014.41 1014.14 1013.89 1013.67 1013.47 1013.30 1013.16 1013.05 1012.99 1012.98 1013.03 1013.14 1013.31 1013.54 1013.80 1014.07
1014.98 1015.08 1015.16 1015.23 1015.28 1015.32 1015.35 1015.38 1015.43 1015.49 1015.57 1015.65 1015.73 1015.78 1015.80 1015.76 1015.67 1015.51 1015.30 1015.04 1014.74 1014.43 1014.12 1013.80 1013.49 1013.19 1012.91 1012.65 1012.43 1012.26 1012.14 1012.09 1012.12 1012.23 1012.42 1012.67 1012.97 1013.29
1014.30 1014.42 1014.52 1014.60 1014.65 1014.67 1014.67 1014.66 1014.67 1014.69 1014.73 1014.79 1014.86 1014.92 1014.97 1014.98 1014.95 1014.86 1014.72 1014.52 1014.28 1014.00 1013.69 1013.36 1013.02 1012.67 1012.33 1012.02 1011.73 1011.50 1011.33 1011.24 1011.24 1011.33 1011.50 1011.75 1012.06 1012.39
1013.63 1013.77 1013.90 1013.98 1014.02 1014.02 1013.98 1013.93 1013.88 1013.84 1013.82 1013.83 1013.87 1013.92 1013.98 1014.02 1014.03 1014.00 1013.92 1013.79 1013.60 1013.37 1013.10 1012.79 1012.45 1012.10 1011.75 1011.40 1011.08 1010.81 1010.60 1010.47 1010.43 1010.48 1010.62 1010.83 1011.10 1011.40
1013.01 1013.18 1013.31 1013.39 1013.42 1013.39 1013.31 1013.21 1013.09 1012.98 1012.90 1012.85 1012.83 1012.85 1012.89 1012.93 1012.96 1012.97 1012.94 1012.87 1012.74 1012.57 1012.35 1012.09 1011.80 1011.48 1011.14 1010.81 1010.49 1010.20 1009.97 1009.80 1009.72 1009.71 1009.79 1009.94 1010.14 1010.37
1012.48 1012.65 1012.77 1012.84 1012.85 1012.79 1012.67 1012.51 1012.33 1012.16 1012.00 1011.89 1011.81 1011.78 1011.78 1011.80 1011.83 1011.85 1011.85 1011.82 1011.75 1011.64 1011.49 1011.29 1011.06 1010.80 1010.51 1010.22 1009.93 1009.65 1009.41 1009.22 1009.09 1009.03 1009.02 1009.08 1009.19 1009.33
1012.03 1012.18 1012.28 1012.32 1012.29 1012.19 1012.03 1011.82 1011.59 1011.35 1011.14 1010.96 1010.83 1010.74 1010.69 1010.68 1010.69 1010.71 1010.72 1010.72 1010.69 1010.63 1010.54 1010.41 1010.26 1010.07 1009.85 1009.61 1009.37 1009.12 1008.89 1008.68 1008.51 1008.38 1008.29 1008.25 1008.26 1008.29
1011.63 1011.73 1011.79 1011.78 1011.70 1011.55 1011.34 1011.09 1010.81 1010.53 1010.28 1010.05 1009.87 1009.75 1009.66 1009.62 1009.60 1009.60 1009.61 1009.61 1009.61 1009.59 1009.54 1009.48 1009.39 1009.27 1009.12 1008.95 1008.76 1008.55 1008.33 1008.11 1007.91 1007.72 1007.56 1007.42 1007.32 1007.26
1011.22 1011.26 1011.24 1011.16 1011.01 1010.80 1010.54 1010.25 1009.94 1009.64 1009.36 1009.12 1008.92 1008.77 1008.66 1008.59 1008.55 1008.54 1008.53 1008.54 1008.54 1008.54 1008.53 1008.51 1008.47 1008.40 1008.32 1008.20 1008.05 1007.87 1007.67 1007.45 1007.22 1006.98 1006.76 1006.55 1006.37 1006.22
1010.76 1010.70 1010.59 1010.41 1010.18 1009.90 1009.59 1009.26 1008.94 1008.63 1008.34 1008.10 1007.91 1007.76 1007.65 1007.58 1007.53 1007.51 1007.49 1007.49 1007.50 1007.50 1007.51 1007.51 1007.50 1007.47 1007.42 1007.33 1007.22 1007.06 1006.87 1006.64 1006.39 1006.12 1005.85 1005.59 1005.36 1005.16
1010.21 1010.04 1009.81 1009.52 1009.20 1008.85 1008.48 1008.12 1007.78 1007.47 1007.20 1006.98 1006.81 1006.69 1006.60 1006.54 1006.51 1006.49 1006.48 1006.48 1006.48 1006.48 1006.48 1006.49 1006.48 1006.47 1006.43 1006.36 1006.25 1006.10 1005.91 1005.68 1005.41 1005.13 1004.83 1004.55 1004.29 1004.07
1009.57 1009.28 1008.93 1008.54 1008.12 1007.69 1007.26 1006.87 1006.51 1006.21 1005.96 1005.77 1005.64 1005.55 1005.50 1005.48 1005.47 1005.47 1005.47 1005.47 1005.47 1005.47 1005.47 1005.47 1005.45 1005.43 1005.38 1005.31 1005.19 1005.04 1004.84 1004.60 1004.32 1004.03 1003.73 1003.44 1003.18 1002.96
1008.88 1008.48 1008.02 1007.53 1007.02 1006.52 1006.04 1005.61 1005.24 1004.93 1004.70 1004.55 1004.45 1004.40 1004.40 1004.41 1004.44 1004.46 1004.48 1004.49 1004.50 1004.49 1004.48 1004.46 1004.43 1004.39 1004.32 1004.23 1004.09 1003.92 1003.71 1003.46 1003.18 1002.89 1002.59 1002.31 1002.07 1001.87
1008.20 1007.71 1007.17 1006.60 1006.02 1005.45 1004.93 1004.46 1004.07 1003.77 1003.55 1003.40 1003.33 1003.32 1003.34 1003.39 1003.44 1003.49 1003.53 1003.55 1003.56 1003.55 1003.53 1003.50 1003.45 1003.38 1003.29 1003.17 1003.02 1002.83 1002.60 1002.34 1002.06 1001.77 1001.48 1001.22 1001.00 1000.83
1007.60 1007.06 1006.46 1005.84 1005.21 1004.61 1004.05 1003.56 1003.15 1002.83 1002.60 1002.46 1002.39 1002.38 1002.41 1002.47 1002.53 1002.59 1002.64 1002.67 1002.67 1002.66 1002.63 1002.58 1002.52 1002.43 1002.32 1002.18 1002.01 1001.80 1001.56 1001.30 1001.02 1000.73 1000.46 1000.22 1000.02 999.87
1007.11 1006.55 1005.94 1005.30 1004.66 1004.04 1003.47 1002.96 1002.53 1002.19 1001.94 1001.78 1001.69 1001.66 1001.67 1001.71 1001.76 1001.80 1001.84 1001.85 1001.85 1001.83 1001.79 1001.72 1001.64 1001.54 1001.42 1001.26 1001.08 1000.87 1000.63 1000.37 1000.09 999.82 999.56 999.32 999.14 999.01
Thickness
5707 5705 5702 5702 5701 5699 5696 5692 5684 5678 5680 5687 5689 5691 5689 5686 5684 5682 5680 5679 5679 5678 5678 5678 5679 5680 5681 5682 5683 5685 5686 5687 5688 5689 5690 5691 5693 5694
5703 5701 5698 5698 5696 5695 5692 5690 5686 5680 5675 5680 5682 5685 5683 5681 5679 5677 5676 5675 5675 5675 5674 5674 5674 5674 5675 5676 5677 5678 5680 5681 5683 5684 5686 5687 5689 5690
5701 5699 5696 5694 5691 5689 5688 5686 5683 5679 5673 5675 5678 5679 5677 5675 5674 5673 5672 5671 5671 5671 5671 5670 5670 5670 5670 5670 5671 5672 5673 5675 5676 5678 5680 5683 5684 5686
5698 5695 5693 5691 5688 5685 5682 5680 5678 5676 5672 5668 5670 5671 5671 5671 5670 5669 5668 5668 5668 5669 5668 5667 5666 5665 5665 5665 5665 5666 5667 5668 5670 5672 5675 5677 5679 5680
5696 5693 5690 5687 5684 5681 5678 5676 5674 5673 5671 5667 5666 5667 5667 5667 5666 5664 5664 5663 5663 5664 5665 5664 5662 5660 5660 5660 5660 5660 5661 5662 5664 5666 5668 5670 5672 5674
5693 5690 5687 5684 5681 5678 5675 5672 5670 5667 5665 5663 5661 5661 5661 5662 5660 5657 5656 5656 5657 5658 5658 5658 5657 5656 5655 5655 5655 5655 5655 5656 5657 5659 5661 5663 5665 5668
5689 5687 5685 5682 5679 5675 5672 5669 5665 5662 5659 5657 5655 5655 5654 5653 5651 5650 5648 5649 5650 5650 5650 5650 5651 5650 5650 5649 5649 5649 5650 5651 5651 5653 5654 5656 5658 5660
5685 5683 5681 5679 5676 5673 5669 5665 5661 5656 5653 5650 5648 5646 5646 5646 5645 5642 5640 5638 5637 5641 5640 5640 5642 5642 5643 5644 5645 5645 5646 5645 5646 5646 5647 5649 5650 5653
5681 5678 5677 5677 5674 5670 5666 5662 5658 5654 5650 5646 5643 5641 5640 5639 5637 5634 5632 5630 5629 5631 5629 5630 5632 5633 5636 5638 5639 5640 5640 5640 5639 5640 5640 5642 5643 5645
5676 5674 5671 5670 5668 5665 5662 5659 5656 5653 5649 5644 5642 5640 5638 5636 5632 5629 5627 5625 5626 5626 5624 5622 5625 5626 5629 5631 5632 5632 5633 5633 5633 5633 5634 5635 5637 5639
5672 5671 5668 5666 5664 5660 5656 5653 5651 5649 5647 5645 5643 5640 5637 5632 5628 5623 5619 5616 5617 5619 5619 5617 5619 5619 5621 5622 5624 5625 5626 5626 5627 5627 5628 5629 5630 5631
5668 5667 5665 5662 5660 5655 5650 5647 5644 5643 5641 5640 5637 5634 5631 5628 5624 5618 5614 5610 5609 5611 5613 5610 5610 5609 5610 5615 5616 5618 5618 5619 5619 5620 5621 5622 5622 5622
5662 5662 5661 5657 5652 5648 5643 5641 5639 5637 5634 5631 5630 5628 5626 5624 5622 5618 5614 5608 5605 5605 5607 5604 5602 5600 5599 5603 5606 5608 5610 5611 5612 5613 5614 5615 5616 5616
5654 5654 5652 5648 5644 5639 5635 5634 5631 5627 5624 5622 5621 5620 5619 5618 5617 5616 5613 5610 5606 5603 5602 5598 5594 5592 5591 5592 5596 5599 5602 5604 5605 5607 5609 5611 5611 5612
5647 5645 5641 5637 5634 5632 5629 5627 5622 5618 5616 5614 5613 5613 5613 5612 5611 5609 5607 5605 5602 5600 5597 5594 5590 5588 5585 5585 5588 5590 5592 5595 5597 5599 5602 5604 5605 5606
5636 5634 5631 5629 5627 5625 5624 5621 5617 5613 5610 5608 5607 5606 5605 5603 5601 5599 5597 5595 5592 5592 5592 5590 5587 5583 5581 5581 5581 5583 5585 5587 5590 5592 5594 5597 5600 5603
5625 5623 5622 5621 5620 5619 5618 5617 5614 5610 5605 5602 5598 5596 5593 5592 5591 5590 5588 5586 5583 5582 5583 5583 5582 5581 5579 5577 5576 5578 5580 5582 5584 5586 5587 5589 5594 5597
5611 5612 5612 5611 5610 5609 5607 5606 5603 5601 5597 5594 5590 5586 5583 5581 5579 5579 5577 5574 5573 5573 5573 5574 5573 5571 5572 5575 5574 5574 5575 5577 5579 5581 5581 5582 5587 5591
5601 5603 5603 5602 5601 5599 5597 5594 5591 5589 5586 5582 5579 5576 5573 5571 5569 5568 5567 5566 5566 5566 5567 5567 5565 5562 5561 5565 5572 5571 5571 5573 5574 5575 5576 5578 5581 5586
5597 5597 5595 5593 5590 5588 5585 5582 5579 5577 5573 5570 5567 5565 5563 5561 5560 5560 5559 5559 5559 5559 5560 5561 5560 5558 5557 5560 5564 5568 5569 5568 5569 5570 5572 5574 5577 5581
5590 5587 5584 5581 5578 5575 5572 5569 5566 5563 5561 5558 5556 5555 5554 5552 5552 5552 5552 5552 5551 5553 5554 5556 5557 5557 5557 5556 5558 5563 5566 5567 5568 5567 5568 5568 5570 5573
5577 5573 5571 5568 5565 5562 5558 5555 5553 5551 5549 5548 5547 5546 5546 5545 5544 5544 5544 5545 5546 5547 5549 5551 5553 5552 5551 5551 5553 5557 5561 5563 5565 5565 5565 5566 5565 5568
5564 5560 5557 5554 5552 5549 5546 5543 5541 5540 5539 5538 5537 5537 5537 5537 5537 5537 5538 5540 5540 5541 5543 5545 5547 5547 5548 5549 5550 5553 5556 5558 5560 5561 5562 5565 5565 5567